| time (UTC) | temp F | wind direction | speed MPH | gust MPH | rain 1hr in | rain 24hr in | rain mn in | humidity % | barometer mb |
| 20260505095541 | 0 | 0.0 | 0.0 | 0.00 | 0.00 | 0.00 | 1000.1 | ||
| 20260505094949 | 0 | 0.0 | 0.0 | 0.00 | 0.00 | 0.00 | 1000.1 | ||
| 20260505094446 | 0 | 0.0 | 0.0 | 0.00 | 0.00 | 0.00 | 1000.3 | ||
| 20260505093945 | 0 | 0.0 | 0.0 | 0.00 | 0.00 | 0.00 | 1000.2 | ||
| 20260505093435 | 0 | 0.0 | 0.0 | 0.00 | 0.00 | 0.00 | 1000.3 | ||
| 20260505092844 | 0 | 0.0 | 0.0 | 0.00 | 0.00 | 0.00 | 1000.2 | ||
| 20260505092343 | 0 | 0.0 | 0.0 | 0.00 | 0.00 | 0.00 | 1000.2 | ||
| 20260505091751 | 0 | 0.0 | 0.0 | 0.00 | 0.00 | 0.00 | 1000.1 | ||
| 20260505091245 | 0 | 0.0 | 0.0 | 0.00 | 0.00 | 0.00 | 1000.1 | ||
| 20260505090743 | 0 | 0.0 | 0.0 | 0.00 | 0.00 | 0.00 | 1000.2 | ||
| 20260505085636 | 0 | 0.0 | 0.0 | 0.00 | 0.00 | 0.00 | 1000.4 | ||
| 20260505085041 | 57 | 205 | 10.0 | 15.0 | 0.00 | 0.00 | 0.00 | 75 | 1000.5 |
| 20260505084451 | 57 | 205 | 10.0 | 15.0 | 0.00 | 0.00 | 0.00 | 75 | 1000.7 |
| 20260505083935 | 57 | 205 | 10.0 | 15.0 | 0.00 | 0.00 | 0.00 | 75 | 1000.7 |
| 20260505082932 | 57 | 194 | 11.0 | 16.0 | 0.00 | 0.00 | 0.00 | 76 | 1000.7 |
| 20260505082433 | 57 | 197 | 11.0 | 16.0 | 0.00 | 0.00 | 0.00 | 76 | 1000.8 |
| 20260505081933 | 56 | 227 | 10.0 | 16.0 | 0.00 | 0.00 | 0.00 | 78 | 1000.8 |
| 20260505081432 | 56 | 238 | 10.0 | 15.0 | 0.00 | 0.00 | 0.00 | 80 | 1000.8 |
| 20260505080933 | 56 | 187 | 11.0 | 16.0 | 0.00 | 0.00 | 0.00 | 81 | 1000.9 |
| 20260505080432 | 56 | 224 | 10.0 | 16.0 | 0.00 | 0.00 | 0.00 | 82 | 1000.9 |
| 20260505075933 | 56 | 215 | 10.0 | 16.0 | 0.00 | 0.00 | 0.00 | 80 | 1001.0 |
| 20260505075433 | 56 | 0 | 9.0 | 17.0 | 0.00 | 0.00 | 0.00 | 82 | 1000.9 |
| 20260505074926 | 56 | 0 | 10.0 | 17.0 | 0.00 | 0.00 | 0.00 | 82 | 1000.9 |
| 20260505074421 | 55 | 219 | 12.0 | 19.0 | 0.00 | 0.00 | 0.00 | 83 | 1001.0 |
| 20260505073914 | 55 | 191 | 13.0 | 19.0 | 0.00 | 0.00 | 0.00 | 81 | 1000.9 |
| 20260505072357 | 55 | 214 | 11.0 | 17.0 | 0.00 | 0.00 | 0.00 | 79 | 1000.8 |
| 20260505071850 | 54 | 209 | 11.0 | 16.0 | 0.00 | 0.00 | 0.00 | 77 | 1000.9 |
| 20260505071345 | 54 | 205 | 11.0 | 17.0 | 0.00 | 0.00 | 0.00 | 75 | 1000.9 |
| 20260505070838 | 54 | 0 | 10.0 | 15.0 | 0.00 | 0.00 | 0.00 | 75 | 1000.8 |
| 20260505070332 | 54 | 198 | 10.0 | 15.0 | 0.00 | 0.00 | 0.00 | 73 | 1000.8 |
| 20260505065320 | 57 | 211 | 10.0 | 15.0 | 0.00 | 0.00 | 0.00 | 65 | 1000.6 |
| 20260505064308 | 57 | 224 | 8.0 | 11.0 | 0.00 | 0.00 | 0.00 | 64 | 1000.5 |
| 20260505063802 | 57 | 232 | 8.0 | 11.0 | 0.00 | 0.00 | 0.00 | 64 | 1000.5 |
| 20260505063256 | 57 | 221 | 8.0 | 12.0 | 0.00 | 0.00 | 0.00 | 64 | 1000.5 |
| 20260505062751 | 58 | 202 | 8.0 | 12.0 | 0.00 | 0.00 | 0.00 | 63 | 1000.6 |
| 20260505062244 | 57 | 192 | 7.0 | 11.0 | 0.00 | 0.00 | 0.00 | 64 | 1000.6 |
| 20260505060726 | 57 | 206 | 7.0 | 10.0 | 0.00 | 0.00 | 0.00 | 64 | 1000.6 |
| 20260505060220 | 57 | 202 | 8.0 | 12.0 | 0.00 | 0.00 | 0.00 | 63 | 1000.6 |
| 20260505055714 | 58 | 192 | 8.0 | 12.0 | 0.00 | 0.00 | 0.00 | 63 | 1000.7 |
| 20260505055209 | 58 | 215 | 7.0 | 10.0 | 0.00 | 0.01 | 0.00 | 63 | 1000.7 |
| 20260505054702 | 58 | 205 | 6.0 | 8.0 | 0.00 | 0.01 | 0.00 | 63 | 1000.8 |
| 20260505054156 | 57 | 192 | 6.0 | 9.0 | 0.00 | 0.01 | 0.00 | 63 | 1000.7 |
| 20260505053650 | 58 | 209 | 6.0 | 9.0 | 0.00 | 0.01 | 0.00 | 63 | 1000.7 |
| 20260505053145 | 57 | 209 | 5.0 | 8.0 | 0.00 | 0.01 | 0.00 | 64 | 1000.8 |
| 20260505052638 | 57 | 205 | 5.0 | 8.0 | 0.00 | 0.01 | 0.00 | 64 | 1000.8 |
| 20260505052135 | 57 | 182 | 5.0 | 8.0 | 0.00 | 0.01 | 0.00 | 64 | 1000.9 |
| 20260505051634 | 56 | 191 | 4.0 | 8.0 | 0.00 | 0.01 | 0.00 | 66 | 1000.9 |
| 20260505051135 | 55 | 225 | 3.0 | 5.0 | 0.00 | 0.01 | 0.00 | 70 | 1000.9 |
| 20260505050130 | 54 | 213 | 2.0 | 4.0 | 0.00 | 0.01 | 0.00 | 73 | 1000.9 |
| 20260505041619 | 55 | 216 | 4.0 | 5.0 | 0.00 | 0.01 | 0.00 | 71 | 1001.5 |
| 20260505041119 | 56 | 211 | 3.0 | 5.0 | 0.00 | 0.01 | 0.00 | 70 | 1001.6 |
| 20260505040619 | 57 | 211 | 3.0 | 6.0 | 0.00 | 0.01 | 0.00 | 67 | 1001.5 |
| 20260505040118 | 57 | 227 | 3.0 | 6.0 | 0.00 | 0.01 | 0.00 | 65 | 1001.6 |
| 20260505035114 | 56 | 225 | 3.0 | 6.0 | 0.00 | 0.01 | 0.01 | 68 | 1001.5 |
| 20260505034613 | 57 | 244 | 3.0 | 5.0 | 0.00 | 0.01 | 0.01 | 67 | 1001.5 |
| 20260505034112 | 58 | 200 | 4.0 | 8.0 | 0.00 | 0.01 | 0.01 | 63 | 1001.6 |
| 20260505033607 | 60 | 193 | 5.0 | 9.0 | 0.00 | 0.01 | 0.01 | 58 | 1001.5 |
| 20260505033102 | 61 | 217 | 5.0 | 10.0 | 0.00 | 0.01 | 0.01 | 57 | 1001.5 |
| 20260505032554 | 61 | 214 | 5.0 | 10.0 | 0.00 | 0.01 | 0.01 | 58 | 1001.6 |
| 20260505031046 | 60 | 177 | 5.0 | 10.0 | 0.00 | 0.01 | 0.01 | 58 | 1001.8 |
| 20260505030546 | 60 | 221 | 4.0 | 8.0 | 0.00 | 0.01 | 0.01 | 59 | 1001.8 |
| 20260505030047 | 60 | 211 | 5.0 | 9.0 | 0.00 | 0.01 | 0.01 | 60 | 1001.7 |
| 20260505025544 | 60 | 221 | 6.0 | 10.0 | 0.00 | 0.01 | 0.01 | 61 | 1001.8 |
| 20260505025044 | 59 | 197 | 7.0 | 10.0 | 0.00 | 0.01 | 0.01 | 62 | 1001.9 |
| 20260505024544 | 59 | 0 | 7.0 | 10.0 | 0.00 | 0.01 | 0.01 | 63 | 1001.9 |
| 20260505024044 | 59 | 193 | 7.0 | 10.0 | 0.00 | 0.01 | 0.01 | 62 | 1001.9 |
| 20260505023544 | 60 | 215 | 6.0 | 10.0 | 0.00 | 0.01 | 0.01 | 62 | 1001.9 |
| 20260505023044 | 59 | 0 | 6.0 | 9.0 | 0.00 | 0.01 | 0.01 | 62 | 1002.0 |
| 20260505022544 | 59 | 222 | 6.0 | 9.0 | 0.00 | 0.01 | 0.01 | 63 | 1001.9 |
| 20260505022045 | 59 | 232 | 7.0 | 9.0 | 0.00 | 0.01 | 0.01 | 63 | 1002.0 |
| 20260505021545 | 60 | 187 | 6.0 | 9.0 | 0.00 | 0.01 | 0.01 | 62 | 1002.0 |
| 20260505021044 | 60 | 194 | 6.0 | 10.0 | 0.00 | 0.01 | 0.01 | 62 | 1002.1 |
| 20260505020545 | 60 | 207 | 6.0 | 10.0 | 0.00 | 0.01 | 0.01 | 62 | 1002.2 |
| 20260505020045 | 60 | 231 | 5.0 | 9.0 | 0.00 | 0.01 | 0.01 | 63 | 1002.1 |
| 20260505015538 | 59 | 217 | 5.0 | 9.0 | 0.00 | 0.01 | 0.01 | 64 | 1002.1 |
| 20260505015038 | 59 | 216 | 5.0 | 10.0 | 0.00 | 0.01 | 0.01 | 66 | 1002.2 |
| 20260505014539 | 58 | 0 | 6.0 | 10.0 | 0.00 | 0.01 | 0.01 | 68 | 1002.2 |
| 20260505014039 | 57 | 237 | 5.0 | 8.0 | 0.00 | 0.01 | 0.01 | 71 | 1002.3 |
| 20260505013538 | 56 | 219 | 4.0 | 8.0 | 0.00 | 0.01 | 0.01 | 73 | 1002.2 |
| 20260505013038 | 56 | 201 | 4.0 | 6.0 | 0.00 | 0.01 | 0.01 | 73 | 1002.2 |
| 20260505012538 | 57 | 0 | 5.0 | 8.0 | 0.00 | 0.01 | 0.01 | 70 | 1002.3 |
| 20260505012038 | 58 | 196 | 6.0 | 9.0 | 0.00 | 0.01 | 0.01 | 68 | 1002.4 |
| 20260505011538 | 59 | 209 | 6.0 | 9.0 | 0.00 | 0.01 | 0.01 | 66 | 1002.4 |
| 20260505011038 | 60 | 227 | 6.0 | 10.0 | 0.00 | 0.01 | 0.01 | 64 | 1002.4 |
| 20260505010538 | 60 | 198 | 7.0 | 10.0 | 0.00 | 0.01 | 0.01 | 63 | 1002.4 |
| 20260505010034 | 60 | 225 | 7.0 | 12.0 | 0.00 | 0.01 | 0.01 | 63 | 1002.3 |
| 20260505005035 | 60 | 220 | 6.0 | 11.0 | 0.00 | 0.01 | 0.01 | 62 | 1002.2 |
| 20260505004535 | 61 | 218 | 7.0 | 10.0 | 0.00 | 0.01 | 0.01 | 62 | 1002.2 |
| 20260505003534 | 59 | 225 | 6.0 | 11.0 | 0.00 | 0.01 | 0.01 | 65 | 1002.2 |
| 20260505003034 | 58 | 230 | 6.0 | 8.0 | 0.00 | 0.01 | 0.01 | 67 | 1002.0 |
| 20260505002534 | 58 | 194 | 6.0 | 8.0 | 0.00 | 0.01 | 0.01 | 68 | 1002.1 |
| 20260505002036 | 58 | 0 | 6.0 | 8.0 | 0.00 | 0.01 | 0.01 | 69 | 1002.1 |
| 20260505001534 | 57 | 219 | 6.0 | 8.0 | 0.00 | 0.01 | 0.01 | 70 | 1002.1 |
| 20260505001034 | 57 | 0 | 6.0 | 8.0 | 0.00 | 0.01 | 0.01 | 71 | 1002.0 |
| 20260505000535 | 56 | 215 | 6.0 | 8.0 | 0.00 | 0.01 | 0.01 | 73 | 1002.0 |
| 20260505000035 | 55 | 0 | 5.0 | 8.0 | 0.00 | 0.01 | 0.01 | 75 | 1001.9 |
| 20260504235534 | 54 | 219 | 4.0 | 8.0 | 0.00 | 0.01 | 0.01 | 75 | 1001.9 |
| 20260504235035 | 55 | 192 | 4.0 | 6.0 | 0.00 | 0.01 | 0.01 | 74 | 1001.9 |
| 20260504234535 | 56 | 0 | 4.0 | 8.0 | 0.00 | 0.01 | 0.01 | 72 | 1001.8 |
| 20260504233534 | 57 | 216 | 6.0 | 12.0 | 0.00 | 0.01 | 0.01 | 69 | 1001.8 |
| 20260504233034 | 58 | 211 | 7.0 | 12.0 | 0.00 | 0.01 | 0.01 | 68 | 1001.9 |
| 20260504232535 | 59 | 0 | 8.0 | 11.0 | 0.00 | 0.01 | 0.01 | 66 | 1001.9 |
| 20260504232034 | 58 | 213 | 7.0 | 11.0 | 0.00 | 0.01 | 0.01 | 67 | 1002.0 |
| 20260504231535 | 58 | 221 | 5.0 | 10.0 | 0.00 | 0.01 | 0.01 | 66 | 1001.9 |
| 20260504231032 | 59 | 208 | 5.0 | 10.0 | 0.00 | 0.01 | 0.01 | 67 | 1001.9 |
| 20260504230532 | 58 | 197 | 7.0 | 11.0 | 0.00 | 0.01 | 0.01 | 68 | 1001.9 |
| 20260504230032 | 58 | 213 | 8.0 | 12.0 | 0.00 | 0.01 | 0.01 | 68 | 1001.9 |
| 20260504225033 | 58 | 201 | 9.0 | 14.0 | 0.00 | 0.01 | 0.01 | 67 | 1001.9 |
| 20260504224531 | 59 | 215 | 9.0 | 14.0 | 0.00 | 0.01 | 0.01 | 64 | 1002.0 |
| 20260504223522 | 60 | 233 | 10.0 | 16.0 | 0.00 | 0.01 | 0.01 | 62 | 1002.1 |
| 20260504223022 | 61 | 0 | 9.0 | 19.0 | 0.00 | 0.01 | 0.01 | 60 | 1002.2 |
| 20260504222521 | 62 | 237 | 10.0 | 19.0 | 0.00 | 0.01 | 0.01 | 59 | 1002.2 |
| 20260504222020 | 62 | 213 | 12.0 | 19.0 | 0.00 | 0.01 | 0.01 | 59 | 1002.2 |
| 20260504221518 | 62 | 209 | 12.0 | 20.0 | 0.00 | 0.01 | 0.01 | 58 | 1002.2 |
| 20260504220516 | 61 | 240 | 12.0 | 19.0 | 0.00 | 0.01 | 0.01 | 60 | 1002.2 |
| 20260504215513 | 62 | 213 | 13.0 | 20.0 | 0.00 | 0.01 | 0.01 | 59 | 1002.2 |
| 20260504215013 | 61 | 194 | 14.0 | 20.0 | 0.00 | 0.01 | 0.01 | 60 | 1002.3 |
| 20260504214513 | 62 | 226 | 13.0 | 20.0 | 0.00 | 0.01 | 0.01 | 59 | 1002.2 |
| 20260504213512 | 61 | 218 | 13.0 | 19.0 | 0.00 | 0.01 | 0.01 | 60 | 1002.2 |
| 20260504213011 | 60 | 216 | 13.0 | 20.0 | 0.00 | 0.01 | 0.01 | 61 | 1002.3 |
| 20260504212511 | 61 | 218 | 13.0 | 20.0 | 0.00 | 0.01 | 0.01 | 61 | 1002.3 |
| 20260504212005 | 60 | 206 | 13.0 | 19.0 | 0.00 | 0.01 | 0.01 | 61 | 1002.3 |
| 20260504211500 | 60 | 197 | 13.0 | 18.0 | 0.00 | 0.01 | 0.01 | 61 | 1002.3 |
| 20260504210953 | 60 | 220 | 14.0 | 19.0 | 0.00 | 0.01 | 0.01 | 61 | 1002.4 |
| 20260504210447 | 60 | 221 | 14.0 | 19.0 | 0.00 | 0.01 | 0.01 | 62 | 1002.5 |
| 20260504205942 | 60 | 207 | 14.0 | 22.0 | 0.00 | 0.01 | 0.01 | 62 | 1002.5 |
| 20260504205435 | 60 | 179 | 14.0 | 21.0 | 0.00 | 0.01 | 0.01 | 62 | 1002.6 |
| 20260504204929 | 60 | 211 | 14.0 | 22.0 | 0.00 | 0.01 | 0.01 | 62 | 1002.7 |
| 20260504204424 | 61 | 209 | 15.0 | 22.0 | 0.00 | 0.01 | 0.01 | 60 | 1002.7 |
| 20260504203416 | 59 | 207 | 14.0 | 20.0 | 0.00 | 0.01 | 0.01 | 64 | 1002.7 |
| 20260504202916 | 59 | 206 | 13.0 | 19.0 | 0.00 | 0.01 | 0.01 | 64 | 1002.7 |
| 20260504202416 | 58 | 213 | 12.0 | 19.0 | 0.00 | 0.01 | 0.01 | 65 | 1002.7 |
| 20260504201916 | 58 | 205 | 13.0 | 18.0 | 0.00 | 0.01 | 0.01 | 65 | 1002.9 |
| 20260504200916 | 60 | 220 | 14.0 | 22.0 | 0.00 | 0.01 | 0.01 | 61 | 1002.9 |
| 20260504200416 | 59 | 250 | 14.0 | 21.0 | 0.00 | 0.01 | 0.01 | 62 | 1003.0 |
| 20260504195915 | 59 | 190 | 14.0 | 22.0 | 0.00 | 0.01 | 0.01 | 61 | 1003.0 |
| 20260504195417 | 60 | 221 | 15.0 | 22.0 | 0.00 | 0.01 | 0.01 | 60 | 1003.1 |
| 20260504194916 | 62 | 205 | 15.0 | 22.0 | 0.00 | 0.01 | 0.01 | 56 | 1003.2 |
| 20260504194415 | 61 | 214 | 15.0 | 22.0 | 0.00 | 0.01 | 0.01 | 56 | 1003.2 |
| 20260504193415 | 62 | 0 | 14.0 | 23.0 | 0.00 | 0.01 | 0.01 | 55 | 1003.4 |
| 20260504192916 | 61 | 234 | 14.0 | 23.0 | 0.00 | 0.01 | 0.01 | 57 | 1003.5 |
| 20260504191915 | 59 | 219 | 15.0 | 24.0 | 0.00 | 0.01 | 0.01 | 61 | 1003.6 |
| 20260504191409 | 59 | 194 | 16.0 | 25.0 | 0.00 | 0.01 | 0.01 | 60 | 1003.5 |
| 20260504190903 | 61 | 203 | 18.0 | 27.0 | 0.00 | 0.01 | 0.01 | 55 | 1003.6 |
| 20260504190357 | 62 | 184 | 19.0 | 28.0 | 0.00 | 0.01 | 0.01 | 55 | 1003.6 |
| 20260504185851 | 62 | 220 | 19.0 | 30.0 | 0.00 | 0.01 | 0.01 | 53 | 1003.7 |
| 20260504185345 | 62 | 183 | 18.0 | 30.0 | 0.00 | 0.01 | 0.01 | 55 | 1003.8 |
| 20260504184839 | 61 | 183 | 14.0 | 28.0 | 0.00 | 0.01 | 0.01 | 56 | 1003.7 |
| 20260504183827 | 59 | 172 | 14.0 | 22.0 | 0.00 | 0.01 | 0.01 | 61 | 1003.9 |
| 20260504182815 | 58 | 196 | 16.0 | 24.0 | 0.00 | 0.01 | 0.01 | 64 | 1003.9 |
| 20260504182309 | 58 | 207 | 19.0 | 28.0 | 0.00 | 0.01 | 0.01 | 63 | 1003.9 |
| 20260504181803 | 59 | 222 | 18.0 | 28.0 | 0.00 | 0.01 | 0.01 | 60 | 1003.9 |
| 20260504180753 | 58 | 0 | 18.0 | 25.0 | 0.00 | 0.01 | 0.01 | 60 | 1004.1 |
| 20260504180245 | 58 | 0 | 18.0 | 30.0 | 0.00 | 0.01 | 0.01 | 61 | 1004.2 |
| 20260504175739 | 58 | 0 | 19.0 | 30.0 | 0.00 | 0.01 | 0.01 | 61 | 1004.2 |
| 20260504175233 | 58 | 216 | 19.0 | 27.0 | 0.00 | 0.01 | 0.01 | 62 | 1004.2 |
| 20260504174727 | 57 | 196 | 20.0 | 32.0 | 0.00 | 0.01 | 0.01 | 64 | 1004.3 |
| 20260504173715 | 56 | 191 | 18.0 | 25.0 | 0.00 | 0.01 | 0.01 | 65 | 1004.4 |
| 20260504173210 | 56 | 210 | 18.0 | 26.0 | 0.00 | 0.01 | 0.01 | 66 | 1004.5 |
| 20260504172704 | 56 | 194 | 18.0 | 31.0 | 0.00 | 0.01 | 0.01 | 66 | 1004.5 |
| 20260504172158 | 57 | 195 | 19.0 | 31.0 | 0.00 | 0.01 | 0.01 | 65 | 1004.5 |
| 20260504171651 | 57 | 204 | 19.0 | 26.0 | 0.00 | 0.01 | 0.01 | 64 | 1004.7 |
| 20260504171145 | 56 | 199 | 19.0 | 27.0 | 0.00 | 0.01 | 0.01 | 67 | 1004.6 |
| 20260504170639 | 56 | 203 | 20.0 | 27.0 | 0.00 | 0.01 | 0.01 | 66 | 1004.7 |
| 20260504150921 | 53 | 232 | 15.0 | 23.0 | 0.00 | 0.01 | 0.01 | 70 | 1005.2 |
| 20260504140837 | 51 | 213 | 11.0 | 17.0 | 0.00 | 0.01 | 0.01 | 77 | 1005.4 |
| 20260504140340 | 51 | 213 | 11.0 | 17.0 | 0.00 | 0.01 | 0.01 | 77 | 1005.4 |
| 20260504130326 | 48 | 217 | 12.0 | 17.0 | 0.00 | 0.01 | 0.01 | 83 | 1005.6 |
| 20260504120259 | 49 | 192 | 9.0 | 15.0 | 0.00 | 0.01 | 0.01 | 81 | 1005.5 |
| 20260504110251 | 48 | 235 | 6.0 | 12.0 | 0.00 | 0.01 | 0.01 | 79 | 1005.2 |
| 20260504100540 | 0 | 0.0 | 0.0 | 0.00 | 0.01 | 0.01 | 1004.9 |